FLX773 SBMQ-SBBV

Flight info

Callsign FLX773
Flight time 1h 28m
Altitude 38000
Route VUMBO DCT ENVUT DCT TIKBA DCT SUMVA
Aircraft A20N/M-SDE2E3FGHIRWXY/LB1

Departure

Time 2026-05-04 17:51
Airport Macapá - Alberto Alcolumbre International Airport (SBMQ)

Arrival

Time 2026-05-04 19:20
Airport Atlas Brasil Cantanhede International Airport (SBBV)
Time Latitude Longitude Altitude Speed Heading
2026-05-04 17:31 0.05101 -51.06714 58 ft 0 kts 147°
2026-05-04 17:41 0.05102 -51.06715 58 ft 1 kts 147°
2026-05-04 17:41 0.05115 -51.06723 58 ft 2 kts 147°
2026-05-04 17:41 0.05128 -51.06732 58 ft 2 kts 147°
2026-05-04 17:41 0.05141 -51.06734 58 ft 2 kts 199°
2026-05-04 17:42 0.05151 -51.06728 58 ft 0 kts 234°
2026-05-04 17:42 0.05154 -51.06722 58 ft 1 kts 240°
2026-05-04 17:42 0.05155 -51.06721 58 ft 0 kts 239°
2026-05-04 17:44 0.05152 -51.06726 58 ft 3 kts 239°
2026-05-04 17:44 0.05132 -51.06758 58 ft 4 kts 238°
2026-05-04 17:44 0.05121 -51.06776 58 ft 0 kts 238°
2026-05-04 17:46 0.05118 -51.06777 58 ft 0 kts 200°
2026-05-04 17:46 0.05116 -51.06770 58 ft 3 kts 69°
2026-05-04 17:46 0.05144 -51.06737 58 ft 7 kts 56°
2026-05-04 17:47 0.05182 -51.06703 58 ft 8 kts 354°
2026-05-04 17:47 0.05191 -51.06746 58 ft 8 kts 242°
2026-05-04 17:47 0.05160 -51.06795 58 ft 8 kts 237°
2026-05-04 17:47 0.05135 -51.06850 59 ft 7 kts 295°
2026-05-04 17:48 0.05185 -51.06887 59 ft 9 kts 326°
2026-05-04 17:48 0.05252 -51.06913 59 ft 11 kts 24°
2026-05-04 17:48 0.05312 -51.06835 59 ft 16 kts 56°
2026-05-04 17:48 0.05381 -51.06725 58 ft 20 kts 58°
2026-05-04 17:49 0.05464 -51.06597 56 ft 22 kts 57°
2026-05-04 17:49 0.05546 -51.06479 55 ft 13 kts 21°
2026-05-04 17:49 0.05590 -51.06440 54 ft 11 kts 131°
2026-05-04 17:49 0.05570 -51.06435 54 ft 0 kts 237°
2026-05-04 17:50 0.05561 -51.06450 54 ft 16 kts 237°
2026-05-04 17:50 0.05339 -51.06792 59 ft 96 kts 237°
2026-05-04 17:51 0.04848 -51.07554 67 ft 159 kts 237°
2026-05-04 17:51 0.04244 -51.08512 541 ft 168 kts 237°
2026-05-04 17:51 0.03597 -51.09495 1162 ft 173 kts 236°
2026-05-04 17:51 0.02908 -51.10521 1550 ft 185 kts 237°
2026-05-04 17:52 0.02176 -51.11650 1885 ft 201 kts 238°
2026-05-04 17:52 0.01387 -51.12878 2217 ft 220 kts 238°
2026-05-04 17:52 0.00534 -51.14220 2500 ft 243 kts 239°
2026-05-04 17:52 -0.00320 -51.15630 2907 ft 262 kts 239°
2026-05-04 17:53 -0.01276 -51.17228 3411 ft 278 kts 239°
2026-05-04 17:53 -0.02287 -51.18922 4147 ft 285 kts 239°
2026-05-04 17:53 -0.03302 -51.20618 4966 ft 288 kts 238°
2026-05-04 17:53 -0.04328 -51.22330 5770 ft 292 kts 238°
2026-05-04 17:54 -0.05378 -51.24075 6567 ft 295 kts 237°
2026-05-04 17:54 -0.06434 -51.25827 7359 ft 298 kts 237°
2026-05-04 17:54 -0.07511 -51.27613 8110 ft 302 kts 237°
2026-05-04 17:54 -0.08591 -51.29405 8845 ft 306 kts 237°
2026-05-04 17:55 -0.09690 -51.31231 9553 ft 310 kts 237°
2026-05-04 17:55 -0.10815 -51.33099 10246 ft 314 kts 237°
2026-05-04 17:55 -0.11957 -51.34994 10651 ft 328 kts 237°
2026-05-04 17:55 -0.13158 -51.36984 10960 ft 345 kts 237°
2026-05-04 17:56 -0.14439 -51.39108 11245 ft 362 kts 237°
2026-05-04 17:56 -0.15750 -51.41288 11497 ft 378 kts 238°
2026-05-04 17:56 -0.17137 -51.43595 11913 ft 387 kts 238°
2026-05-04 17:56 -0.18514 -51.45886 12498 ft 391 kts 238°
2026-05-04 17:57 -0.19924 -51.48232 13093 ft 394 kts 238°
2026-05-04 17:57 -0.21339 -51.50584 13654 ft 397 kts 238°
2026-05-04 17:57 -0.22768 -51.52959 14209 ft 401 kts 238°
2026-05-04 17:57 -0.24101 -51.55403 14714 ft 405 kts 248°
2026-05-04 17:58 -0.24701 -51.58162 15233 ft 408 kts 268°
2026-05-04 17:58 -0.24402 -51.60938 15775 ft 409 kts 284°
2026-05-04 17:58 -0.23705 -51.63685 16272 ft 412 kts 285°
2026-05-04 17:58 -0.22983 -51.66482 16752 ft 415 kts 285°
2026-05-04 17:59 -0.22261 -51.69282 17217 ft 417 kts 285°
2026-05-04 17:59 -0.21545 -51.72071 17693 ft 420 kts 285°
2026-05-04 17:59 -0.20091 -51.77752 18533 ft 426 kts 285°
2026-05-04 18:00 -0.19355 -51.80640 18954 ft 429 kts 284°
2026-05-04 18:00 -0.18627 -51.83500 19371 ft 432 kts 284°
2026-05-04 18:00 -0.17884 -51.86418 19784 ft 435 kts 284°
2026-05-04 18:00 -0.17135 -51.89359 20191 ft 438 kts 284°
2026-05-04 18:01 -0.16380 -51.92329 20572 ft 441 kts 284°
2026-05-04 18:01 -0.15627 -51.95291 20954 ft 444 kts 284°
2026-05-04 18:01 -0.14868 -51.98273 21327 ft 447 kts 284°
2026-05-04 18:02 -0.13330 -52.04317 22056 ft 454 kts 284°
2026-05-04 18:02 -0.12547 -52.07394 22456 ft 456 kts 284°
2026-05-04 18:02 -0.11766 -52.10466 22841 ft 458 kts 284°
2026-05-04 18:02 -0.10983 -52.13547 23216 ft 461 kts 284°
2026-05-04 18:03 -0.10190 -52.16667 23606 ft 463 kts 284°
2026-05-04 18:03 -0.09407 -52.19748 24007 ft 464 kts 284°
2026-05-04 18:03 -0.08607 -52.22889 24373 ft 466 kts 284°
2026-05-04 18:03 -0.07810 -52.26024 24716 ft 469 kts 284°
2026-05-04 18:04 -0.07004 -52.29191 25074 ft 470 kts 284°
2026-05-04 18:04 -0.06199 -52.32352 25449 ft 472 kts 284°
2026-05-04 18:04 -0.04583 -52.38707 26136 ft 475 kts 284°
2026-05-04 18:05 -0.03773 -52.41891 26450 ft 477 kts 284°
2026-05-04 18:05 -0.02962 -52.45076 26729 ft 479 kts 284°
2026-05-04 18:05 -0.02131 -52.48342 27047 ft 481 kts 284°
2026-05-04 18:05 -0.01319 -52.51533 27353 ft 482 kts 284°
2026-05-04 18:06 0.00339 -52.58051 27903 ft 484 kts 284°
2026-05-04 18:06 0.01166 -52.61301 28267 ft 482 kts 284°
2026-05-04 18:06 0.01985 -52.64521 28718 ft 479 kts 284°
2026-05-04 18:07 0.02807 -52.67750 29056 ft 479 kts 284°
2026-05-04 18:07 0.03615 -52.70925 29323 ft 479 kts 284°
2026-05-04 18:07 0.04438 -52.74160 29550 ft 480 kts 284°
2026-05-04 18:07 0.05268 -52.77420 29743 ft 482 kts 284°
2026-05-04 18:08 0.06084 -52.80628 30008 ft 482 kts 284°
2026-05-04 18:08 0.06907 -52.83862 30320 ft 481 kts 284°
2026-05-04 18:08 0.07727 -52.87087 30655 ft 479 kts 284°
2026-05-04 18:08 0.08552 -52.90327 30974 ft 477 kts 284°
2026-05-04 18:09 0.10174 -52.96704 31584 ft 474 kts 284°
2026-05-04 18:09 0.11788 -53.03048 32188 ft 471 kts 284°
2026-05-04 18:10 0.12596 -53.06222 32494 ft 470 kts 284°
2026-05-04 18:10 0.13398 -53.09374 32809 ft 468 kts 284°
2026-05-04 18:10 0.14194 -53.12503 33114 ft 467 kts 283°
2026-05-04 18:10 0.14988 -53.15623 33421 ft 467 kts 283°
2026-05-04 18:11 0.15794 -53.18792 33756 ft 465 kts 283°
2026-05-04 18:11 0.16581 -53.21886 34064 ft 464 kts 283°
2026-05-04 18:11 0.17370 -53.24992 34346 ft 463 kts 283°
2026-05-04 18:11 0.18162 -53.28102 34580 ft 464 kts 283°
2026-05-04 18:12 0.18959 -53.31238 34770 ft 464 kts 283°
2026-05-04 18:12 0.19757 -53.34375 34960 ft 465 kts 283°
2026-05-04 18:12 0.20543 -53.37467 35126 ft 466 kts 283°
2026-05-04 18:12 0.21342 -53.40614 35298 ft 467 kts 283°
2026-05-04 18:13 0.22145 -53.43772 35466 ft 467 kts 283°
2026-05-04 18:13 0.22940 -53.46901 35656 ft 467 kts 283°
2026-05-04 18:13 0.24526 -53.53138 36042 ft 466 kts 283°
2026-05-04 18:14 0.25323 -53.56279 36223 ft 466 kts 283°
2026-05-04 18:14 0.26118 -53.59390 36384 ft 466 kts 283°
2026-05-04 18:14 0.27029 -53.62494 36543 ft 466 kts 286°
2026-05-04 18:15 0.29018 -53.68642 36876 ft 465 kts 287°
2026-05-04 18:15 0.31019 -53.74795 37194 ft 464 kts 287°
2026-05-04 18:15 0.32006 -53.77837 37333 ft 464 kts 287°
2026-05-04 18:16 0.33003 -53.80912 37463 ft 464 kts 286°
2026-05-04 18:16 0.33986 -53.83946 37581 ft 464 kts 287°
2026-05-04 18:16 0.34987 -53.87043 37678 ft 464 kts 287°
2026-05-04 18:17 0.36965 -53.93158 37852 ft 465 kts 286°
2026-05-04 18:17 0.37957 -53.96223 37929 ft 465 kts 286°
2026-05-04 18:18 0.40945 -54.05462 37935 ft 466 kts 287°
2026-05-04 18:18 0.42925 -54.11586 37933 ft 466 kts 286°
2026-05-04 18:19 0.45910 -54.20813 37935 ft 466 kts 286°
2026-05-04 18:19 0.47901 -54.26970 37935 ft 466 kts 286°
2026-05-04 18:20 0.49879 -54.33089 37930 ft 466 kts 287°
2026-05-04 18:20 0.51880 -54.39274 37932 ft 466 kts 286°
2026-05-04 18:21 0.53867 -54.45422 37932 ft 466 kts 286°
2026-05-04 18:21 0.55852 -54.51558 37936 ft 466 kts 286°
2026-05-04 18:22 0.57847 -54.57729 37932 ft 466 kts 286°
2026-05-04 18:22 0.59831 -54.63868 37937 ft 466 kts 286°
2026-05-04 18:23 0.61814 -54.70003 37937 ft 466 kts 286°
2026-05-04 18:23 0.63805 -54.76163 37938 ft 466 kts 286°
2026-05-04 18:24 0.65800 -54.82331 37940 ft 466 kts 286°
2026-05-04 18:24 0.67784 -54.88469 37942 ft 466 kts 286°
2026-05-04 18:25 0.69772 -54.94617 37946 ft 466 kts 286°
2026-05-04 18:25 0.71769 -55.00796 37948 ft 466 kts 286°
2026-05-04 18:26 0.73750 -55.06927 37950 ft 467 kts 286°
2026-05-04 18:26 0.75744 -55.13097 37948 ft 467 kts 286°
2026-05-04 18:27 0.77741 -55.19276 37946 ft 467 kts 286°
2026-05-04 18:27 0.79729 -55.25431 37945 ft 467 kts 286°
2026-05-04 18:28 0.81723 -55.31600 37946 ft 467 kts 286°
2026-05-04 18:28 0.83711 -55.37752 37948 ft 466 kts 286°
2026-05-04 18:29 0.85694 -55.43896 37949 ft 466 kts 286°
2026-05-04 18:29 0.87688 -55.50061 37950 ft 467 kts 286°
2026-05-04 18:30 0.90669 -55.59291 37949 ft 467 kts 286°
2026-05-04 18:31 0.92666 -55.65475 37947 ft 467 kts 286°
2026-05-04 18:31 0.94662 -55.71655 37945 ft 467 kts 286°
2026-05-04 18:32 0.96647 -55.77807 37942 ft 467 kts 286°
2026-05-04 18:32 0.98636 -55.83964 37942 ft 467 kts 286°
2026-05-04 18:33 1.00626 -55.90127 37945 ft 467 kts 286°
2026-05-04 18:33 1.02620 -55.96310 37949 ft 467 kts 286°
2026-05-04 18:34 1.04608 -56.02471 37951 ft 467 kts 286°
2026-05-04 18:34 1.06597 -56.08628 37950 ft 467 kts 287°
2026-05-04 18:35 1.08687 -56.14752 37950 ft 467 kts 288°
2026-05-04 18:35 1.10812 -56.20902 37949 ft 468 kts 288°
2026-05-04 18:36 1.12921 -56.27040 37950 ft 467 kts 288°
2026-05-04 18:36 1.15027 -56.33178 37953 ft 467 kts 287°
2026-05-04 18:37 1.17129 -56.39310 37954 ft 468 kts 287°
2026-05-04 18:37 1.19233 -56.45454 37957 ft 468 kts 288°
2026-05-04 18:38 1.21334 -56.51590 37956 ft 468 kts 288°
2026-05-04 18:38 1.23440 -56.57740 37959 ft 468 kts 288°
2026-05-04 18:39 1.25536 -56.63862 37959 ft 468 kts 288°
2026-05-04 18:39 1.27649 -56.70032 37960 ft 468 kts 288°
2026-05-04 18:40 1.29751 -56.76173 37962 ft 468 kts 288°
2026-05-04 18:40 1.31846 -56.82295 37960 ft 468 kts 288°
2026-05-04 18:41 1.33953 -56.88448 37959 ft 468 kts 288°
2026-05-04 18:41 1.36053 -56.94584 37956 ft 468 kts 288°
2026-05-04 18:42 1.38154 -57.00724 37952 ft 469 kts 288°
2026-05-04 18:42 1.40257 -57.06868 37948 ft 468 kts 288°
2026-05-04 18:43 1.42364 -57.13028 37947 ft 468 kts 288°
2026-05-04 18:43 1.44464 -57.19167 37951 ft 468 kts 288°
2026-05-04 18:44 1.46570 -57.25323 37950 ft 468 kts 288°
2026-05-04 18:44 1.48672 -57.31467 37948 ft 469 kts 288°
2026-05-04 18:45 1.50765 -57.37583 37950 ft 469 kts 288°
2026-05-04 18:45 1.52882 -57.43776 37955 ft 469 kts 287°
2026-05-04 18:46 1.54981 -57.49912 37957 ft 470 kts 287°
2026-05-04 18:46 1.57099 -57.56110 37963 ft 470 kts 288°
2026-05-04 18:47 1.59202 -57.62264 37963 ft 469 kts 288°
2026-05-04 18:47 1.61304 -57.68412 37972 ft 470 kts 288°
2026-05-04 18:48 1.63418 -57.74596 37966 ft 470 kts 287°
2026-05-04 18:48 1.65527 -57.80767 37970 ft 470 kts 288°
2026-05-04 18:49 1.67644 -57.86959 37970 ft 471 kts 288°
2026-05-04 18:49 1.69756 -57.93141 37974 ft 471 kts 288°
2026-05-04 18:50 1.71861 -57.99304 37971 ft 471 kts 288°
2026-05-04 18:50 1.73981 -58.05505 37975 ft 472 kts 287°
2026-05-04 18:51 1.76093 -58.11693 37977 ft 472 kts 287°
2026-05-04 18:51 1.78211 -58.17896 37980 ft 472 kts 288°
2026-05-04 18:52 1.80326 -58.24088 37981 ft 472 kts 287°
2026-05-04 18:52 1.82440 -58.30281 37985 ft 472 kts 287°
2026-05-04 18:53 1.84569 -58.36512 37981 ft 473 kts 287°
2026-05-04 18:53 1.86687 -58.42719 37972 ft 473 kts 288°
2026-05-04 18:54 1.88808 -58.48935 37967 ft 472 kts 288°
2026-05-04 18:54 1.90920 -58.55122 37965 ft 472 kts 287°
2026-05-04 18:55 1.93037 -58.61326 37972 ft 472 kts 287°
2026-05-04 18:55 1.95174 -58.67591 37975 ft 472 kts 288°
2026-05-04 18:56 1.96557 -58.71654 37967 ft 465 kts 288°
2026-05-04 18:56 1.98629 -58.77720 37953 ft 463 kts 288°
2026-05-04 18:57 2.00713 -58.83822 37941 ft 465 kts 288°
2026-05-04 18:57 2.02799 -58.89932 37942 ft 468 kts 287°
2026-05-04 18:58 2.04902 -58.96099 37962 ft 471 kts 287°
2026-05-04 18:58 2.07009 -59.02289 37968 ft 472 kts 287°
2026-05-04 18:59 2.09122 -59.08487 37966 ft 472 kts 287°
2026-05-04 18:59 2.11257 -59.14746 37964 ft 472 kts 287°
2026-05-04 19:00 2.13353 -59.20898 37787 ft 467 kts 287°
2026-05-04 19:00 2.14391 -59.23949 37164 ft 465 kts 287°
2026-05-04 19:00 2.15434 -59.27014 36178 ft 468 kts 287°
2026-05-04 19:01 2.16486 -59.30108 35088 ft 473 kts 288°
2026-05-04 19:01 2.17550 -59.33239 34019 ft 477 kts 288°
2026-05-04 19:01 2.18605 -59.36340 32976 ft 481 kts 288°
2026-05-04 19:01 2.19691 -59.39529 31939 ft 485 kts 288°
2026-05-04 19:02 2.20781 -59.42728 30909 ft 489 kts 288°
2026-05-04 19:02 2.21878 -59.45947 29859 ft 492 kts 288°
2026-05-04 19:02 2.22968 -59.49143 28893 ft 494 kts 288°
2026-05-04 19:02 2.24080 -59.52405 28086 ft 491 kts 289°
2026-05-04 19:03 2.25166 -59.55594 27388 ft 488 kts 289°
2026-05-04 19:03 2.26247 -59.58771 26737 ft 483 kts 289°
2026-05-04 19:03 2.27328 -59.61946 26105 ft 478 kts 289°
2026-05-04 19:03 2.28387 -59.65058 25459 ft 474 kts 289°
2026-05-04 19:04 2.29445 -59.68166 24833 ft 469 kts 289°
2026-05-04 19:04 2.30486 -59.71227 24223 ft 465 kts 289°
2026-05-04 19:04 2.31524 -59.74280 23584 ft 461 kts 289°
2026-05-04 19:04 2.32550 -59.77296 22965 ft 457 kts 289°
2026-05-04 19:05 2.33556 -59.80253 22349 ft 453 kts 289°
2026-05-04 19:05 2.34562 -59.83208 21744 ft 449 kts 289°
2026-05-04 19:05 2.35574 -59.86185 21133 ft 446 kts 290°
2026-05-04 19:05 2.36557 -59.89074 20536 ft 442 kts 290°
2026-05-04 19:06 2.37542 -59.91973 19930 ft 439 kts 290°
2026-05-04 19:06 2.38514 -59.94837 19319 ft 436 kts 290°
2026-05-04 19:06 2.39495 -59.97722 18715 ft 433 kts 290°
2026-05-04 19:06 2.40448 -60.00523 18132 ft 430 kts 290°
2026-05-04 19:07 2.41415 -60.03367 17529 ft 427 kts 291°
2026-05-04 19:07 2.42360 -60.06148 16945 ft 424 kts 291°
2026-05-04 19:07 2.43313 -60.08946 16395 ft 421 kts 291°
2026-05-04 19:07 2.44243 -60.11678 15864 ft 417 kts 291°
2026-05-04 19:08 2.45177 -60.14421 15297 ft 414 kts 291°
2026-05-04 19:08 2.46094 -60.17117 14736 ft 411 kts 290°
2026-05-04 19:08 2.47014 -60.19821 14180 ft 409 kts 290°
2026-05-04 19:08 2.47925 -60.22499 13636 ft 405 kts 290°
2026-05-04 19:09 2.48824 -60.25150 13071 ft 403 kts 290°
2026-05-04 19:09 2.49735 -60.27829 12499 ft 401 kts 290°
2026-05-04 19:09 2.50620 -60.30434 11985 ft 397 kts 290°
2026-05-04 19:09 2.51503 -60.33037 11479 ft 393 kts 290°
2026-05-04 19:10 2.52375 -60.35607 11033 ft 386 kts 290°
2026-05-04 19:10 2.53214 -60.38081 10515 ft 370 kts 290°
2026-05-04 19:10 2.54019 -60.40454 10110 ft 349 kts 290°
2026-05-04 19:10 2.54767 -60.42674 9989 ft 321 kts 291°
2026-05-04 19:11 2.55463 -60.44731 9884 ft 307 kts 291°
2026-05-04 19:11 2.56153 -60.46755 9516 ft 307 kts 291°
2026-05-04 19:11 2.56834 -60.48756 9148 ft 306 kts 291°
2026-05-04 19:11 2.57521 -60.50773 8788 ft 305 kts 291°
2026-05-04 19:12 2.58203 -60.52780 8441 ft 304 kts 291°
2026-05-04 19:12 2.59553 -60.56756 7752 ft 301 kts 291°
2026-05-04 19:12 2.60216 -60.58712 7409 ft 299 kts 291°
2026-05-04 19:13 2.60887 -60.60689 7068 ft 297 kts 291°
2026-05-04 19:13 2.61547 -60.62638 6726 ft 295 kts 291°
2026-05-04 19:13 2.62198 -60.64555 6395 ft 293 kts 291°
2026-05-04 19:13 2.62851 -60.66480 6055 ft 291 kts 291°
2026-05-04 19:14 2.63505 -60.68402 5723 ft 289 kts 291°
2026-05-04 19:14 2.64149 -60.70303 5392 ft 287 kts 291°
2026-05-04 19:14 2.64785 -60.72176 5065 ft 285 kts 291°
2026-05-04 19:14 2.65415 -60.74038 4726 ft 283 kts 291°
2026-05-04 19:15 2.66087 -60.75877 4395 ft 281 kts 300°
2026-05-04 19:15 2.67285 -60.77363 4068 ft 272 kts 326°
2026-05-04 19:15 2.68878 -60.78384 3789 ft 266 kts 336°
2026-05-04 19:15 2.70510 -60.79198 3619 ft 257 kts 338°
2026-05-04 19:16 2.72102 -60.79955 3426 ft 249 kts 339°
2026-05-04 19:16 2.73648 -60.80685 3234 ft 242 kts 340°
2026-05-04 19:16 2.75228 -60.81228 3038 ft 232 kts 354°
2026-05-04 19:16 2.76790 -60.81280 2836 ft 220 kts 15°
2026-05-04 19:17 2.78118 -60.80665 2639 ft 207 kts 42°
2026-05-04 19:17 2.79074 -60.79634 2468 ft 195 kts 56°
2026-05-04 19:17 2.79766 -60.78519 2276 ft 181 kts 62°
2026-05-04 19:17 2.80330 -60.77445 1970 ft 171 kts 65°
2026-05-04 19:18 2.80847 -60.76415 1651 ft 161 kts 65°
2026-05-04 19:18 2.81345 -60.75433 1375 ft 149 kts 65°
2026-05-04 19:18 2.81795 -60.74558 1171 ft 135 kts 65°
2026-05-04 19:18 2.82215 -60.73731 982 ft 133 kts 65°
2026-05-04 19:19 2.82642 -60.72903 837 ft 134 kts 65°
2026-05-04 19:19 2.83075 -60.72063 694 ft 135 kts 66°
2026-05-04 19:19 2.83497 -60.71231 521 ft 135 kts 66°
2026-05-04 19:19 2.83929 -60.70383 360 ft 136 kts 67°
2026-05-04 19:20 2.84346 -60.69561 274 ft 113 kts 63°
2026-05-04 19:20 2.84575 -60.69115 273 ft 39 kts 61°
2026-05-04 19:20 2.84649 -60.68969 273 ft 19 kts 63°
2026-05-04 19:20 2.84710 -60.68848 273 ft 19 kts 62°
2026-05-04 19:21 2.84773 -60.68729 273 ft 19 kts 62°
2026-05-04 19:21 2.84833 -60.68610 273 ft 19 kts 63°
2026-05-04 19:21 2.84887 -60.68501 273 ft 15 kts 77°
2026-05-04 19:21 2.84813 -60.68440 273 ft 14 kts 152°
2026-05-04 19:22 2.84741 -60.68464 273 ft 13 kts 244°
2026-05-04 19:22 2.84698 -60.68547 273 ft 13 kts 243°
2026-05-04 19:22 2.84654 -60.68633 273 ft 14 kts 243°
2026-05-04 19:22 2.84608 -60.68722 273 ft 14 kts 243°
2026-05-04 19:23 2.84562 -60.68813 273 ft 14 kts 243°
2026-05-04 19:23 2.84514 -60.68906 273 ft 15 kts 242°
2026-05-04 19:23 2.84466 -60.69001 274 ft 15 kts 243°
2026-05-04 19:23 2.84417 -60.69098 274 ft 15 kts 243°
2026-05-04 19:24 2.84367 -60.69196 274 ft 15 kts 243°
2026-05-04 19:24 2.84319 -60.69237 274 ft 3 kts 148°
2026-05-04 19:24 2.84291 -60.69227 274 ft 5 kts 166°
2026-05-04 19:24 2.84277 -60.69250 274 ft 6 kts 271°
2026-05-04 19:25 2.84258 -60.69293 274 ft 7 kts 243°
2026-05-04 19:25 2.84223 -60.69302 274 ft 6 kts 151°
2026-05-04 19:25 2.84195 -60.69286 274 ft 2 kts 152°
2026-05-04 19:25 2.84190 -60.69283 274 ft 0 kts 152°